STARLINK-2221 (48571 NORAD) Tracking and Keplerian Element Data

This shows tracking and keplerian element data for the satellite.

Feedback or suggestion? Click here.




ElementValue
Catalog48571
NameSTARLINK-2221
Epoch Orbit1186
Epoch Day214.78881855
Epoch Year2021
RAAN122.9761
Inclination53.0565
Eccentricity0.0001508
Argument of Perigee87.8377
Mean Anonmoly272.2785
Mean Motion15.06384663
Decay Rate6.63E-06
L11 48571U 21041U 21214.78881855 .00000663 00000-0 63396-4 0 9999
L22 48571 53.0565 122.9761 0001508 87.8377 272.2785 15.06384663 11864

Live tracking and technical data element details for STARLINK-2221 (NORAD 48571). STARLINK-2221 can be tracked NOW for your location showing map with azimuth and elevation plus other details from your city location.

Track the satellite on the map from your city or location and see movement details for azimuth, elevation, latitude, longitude, range, height, and movement on the map or in text.







IsCatalogInMostPopularTable: catalog: 48571, numindb: 17
Update: records affected: 1



GetName: 48571 STARLINK-2221

Hit Count: updated at: Tue, 03 Aug 2021 23:47:44 GMT